Probability
23 21 19 18 18 19 20 19 18 17 14 10 7 6 4 3 1 1 3 4 2 1 0 0 0 0 0 0 0 0 0 0 0 0 0 0 0 0 0 0 0 0 0
22 22 23 24 23 22 21 20 19 17 14 11 9 6 4 3 1 2 5 6 3 2 1 0 0 0 0 0 0 0 0 0 0 0 0 0 0 0 0 0 0 0 1
21 23 28 31 29 25 21 19 20 18 16 14 11 8 5 3 2 3 7 7 5 3 1 0 0 0 0 0 0 0 0 1 1 1 1 0 0 0 0 0 0 0 1
20 24 30 33 30 23 18 17 17 17 17 16 14 10 7 4 3 3 5 6 5 2 1 1 1 1 1 0 0 0 0 1 2 3 2 2 1 0 0 0 0 0 1
21 24 30 33 27 18 15 14 15 16 16 16 15 12 9 6 5 5 5 6 6 3 1 2 2 2 2 1 0 0 0 1 2 3 3 3 2 1 0 0 0 0 0
21 23 29 29 22 15 12 12 13 15 16 16 14 13 11 9 8 6 5 6 7 4 2 1 2 3 3 1 1 1 0 0 1 2 3 4 3 2 1 0 0 0 0
19 21 24 23 18 13 11 11 12 13 14 14 13 12 12 10 8 4 3 4 6 5 2 0 1 3 3 2 3 2 1 1 1 1 2 4 4 3 3 2 2 1 0
18 17 17 16 14 12 11 12 13 13 12 11 10 10 10 8 5 2 1 3 5 4 1 0 0 1 2 3 4 2 1 1 1 1 2 4 5 4 5 6 6 4 2
18 15 11 10 11 13 13 13 14 13 9 6 6 7 6 5 2 1 1 4 6 5 3 1 0 1 2 4 4 3 2 2 2 1 2 4 5 6 8 9 9 7 4
22 17 11 9 11 14 15 14 12 10 7 5 5 4 3 2 1 1 2 5 5 5 4 2 1 1 3 5 5 4 3 3 3 3 3 5 7 9 11 12 11 9 7
26 22 16 13 14 16 17 15 11 7 5 5 5 4 1 0 0 1 3 3 3 2 2 2 2 1 1 4 5 5 3 3 4 5 6 9 13 15 16 14 14 13 12
26 25 22 20 20 19 18 16 11 8 6 6 7 5 3 1 1 2 3 2 1 0 1 2 2 1 1 3 5 4 3 4 6 8 10 12 14 17 17 16 14 14 15
24 25 27 27 25 23 19 16 13 10 8 8 8 8 5 4 3 4 4 3 1 1 2 3 3 3 2 3 5 6 6 8 9 11 11 11 11 12 14 15 14 13 12
27 29 30 31 30 27 22 19 16 13 12 12 11 10 8 6 6 6 5 3 1 1 2 2 3 3 5 6 8 9 10 11 11 11 10 9 7 7 8 11 12 11 10
35 35 36 35 34 30 26 22 19 17 16 15 15 14 12 9 8 7 5 3 1 1 1 2 2 4 7 9 10 10 10 11 11 10 8 7 5 5 5 6 8 8 8
38 39 40 40 37 33 28 23 20 19 18 17 17 17 15 12 10 8 6 4 4 3 4 4 4 6 7 7 7 7 8 9 9 9 7 5 4 4 4 4 3 4 4
39 40 42 42 39 34 30 26 22 20 18 17 16 16 15 13 11 9 8 8 7 7 8 8 8 7 5 4 3 4 5 7 8 8 6 5 4 4 5 4 3 2 2
40 41 42 42 39 36 33 29 25 21 17 16 16 16 15 13 11 10 9 8 8 9 9 9 8 6 4 2 1 1 4 6 7 7 6 5 4 4 4 4 4 3 3
41 41 41 40 39 38 37 33 27 20 16 15 16 15 13 11 9 8 8 8 8 8 8 8 7 6 3 1 0 0 2 4 5 5 4 4 3 2 2 2 3 3 3
40 40 40 39 39 40 41 38 29 21 17 15 13 12 10 8 7 7 8 8 7 7 7 6 6 5 3 1 0 0 1 1 2 3 4 3 2 1 1 1 2 1 1
35 37 40 42 42 42 43 39 30 22 17 14 10 8 6 5 5 7 9 9 7 6 5 5 4 4 3 2 0 0 0 0 1 3 5 4 1 0 0 1 1 0 0
31 34 39 42 41 39 38 34 26 18 13 10 7 4 2 2 3 5 7 8 7 5 4 4 3 3 3 2 1 0 0 0 1 3 5 3 1 0 0 0 0 0 0
28 30 34 35 34 32 30 26 20 14 10 6 3 1 0 0 2 3 4 5 6 5 4 4 4 4 4 3 1 0 0 0 1 2 3 1 0 0 0 0 0 0 0
25 25 27 28 27 25 22 19 15 11 8 4 1 0 0 0 1 2 2 3 4 4 3 3 3 4 5 3 1 0 0 0 0 1 1 0 0 0 0 0 0 0 0
23 24 24 24 22 19 17 15 12 8 4 2 0 0 0 0 0 1 1 1 2 2 2 1 2 3 3 2 1 0 0 0 0 0 0 0 0 0 0 0 0 0 0
24 25 25 22 18 15 14 12 9 5 2 0 0 0 0 0 0 0 0 0 1 1 1 0 1 2 2 1 0 0 0 0 0 0 0 0 0 0 0 0 0 0 0
Wind_Speed
10 10 10 10 10 10 10 10 11 10 9 7 7 7 7 6 6 6 6 6 6 6 5 4 4 5 3 4 4 4 5 4 3 3 3 4 5 4 4 5 4 5 5
10 10 10 10 10 10 11 11 11 11 10 8 6 5 5 5 5 5 5 7 7 7 7 6 6 5 4 4 4 4 4 4 4 3 3 3 4 5 5 5 6 6 5
10 11 11 10 10 10 11 9 10 10 10 8 6 4 3 4 4 5 6 7 7 8 7 7 6 5 6 5 5 5 6 4 4 4 4 3 2 2 4 5 5 5 5
10 10 10 10 10 9 9 9 9 9 9 8 8 8 6 6 6 5 5 6 7 7 7 7 7 6 5 4 6 6 5 6 5 4 4 5 4 3 2 4 5 6 6
9 10 10 10 9 8 8 8 8 8 8 8 8 7 6 5 4 4 5 5 5 6 6 7 6 6 6 5 5 4 6 5 5 4 4 4 4 6 4 3 3 4 5
9 10 9 9 8 8 8 8 7 7 7 8 8 8 7 6 5 5 5 5 4 5 6 6 6 6 6 6 6 5 7 6 5 5 5 4 4 4 4 5 5 4 3
10 10 10 10 9 9 8 8 8 7 7 7 7 7 7 7 7 6 6 5 5 5 5 6 5 5 6 6 6 6 6 6 6 6 5 5 5 5 5 5 5 5 4
10 10 10 10 9 9 9 8 8 7 7 7 6 6 6 5 4 6 5 6 5 5 5 6 6 6 6 6 6 5 6 6 6 7 5 5 5 5 5 5 5 5 5
11 11 10 10 10 9 9 8 7 7 6 6 6 5 5 5 5 5 5 5 4 4 5 5 5 6 6 6 5 4 5 5 6 6 6 6 4 5 5 5 5 6 6
11 10 10 10 9 9 9 8 7 6 6 6 5 4 4 4 3 3 3 3 4 4 4 5 5 5 5 6 6 5 5 5 5 5 5 5 5 4 5 5 5 5 6
11 11 10 10 10 9 9 8 7 6 6 5 4 4 3 3 3 2 3 3 3 3 4 4 5 5 5 5 5 5 5 6 5 5 6 6 6 5 5 5 5 6 6
10 10 11 10 10 9 8 8 7 7 6 5 5 4 3 3 2 2 2 2 2 3 3 4 4 5 5 5 5 6 5 5 5 5 5 5 4 5 5 5 6 5 5
10 11 10 10 9 8 8 7 7 7 6 6 5 4 3 3 2 2 2 1 2 2 3 3 3 3 4 4 5 5 5 4 5 4 4 4 4 5 4 5 5 4 4
11 11 10 9 9 8 7 7 7 6 6 6 5 5 4 3 2 2 1 1 1 2 2 2 3 3 3 3 3 3 3 3 3 3 2 3 3 4 4 4 4 4 4
11 11 10 10 9 9 8 7 7 6 6 6 5 5 4 3 2 2 2 2 1 1 1 1 1 2 2 1 2 2 2 2 2 1 1 1 2 3 2 2 2 2 2
11 11 10 10 9 9 8 8 7 6 6 5 5 5 4 4 3 3 3 2 2 1 1 1 1 1 1 3 3 1 0 0 0 0 1 1 1 3 4 4 5 5 2
10 10 10 10 9 9 8 8 7 7 6 5 4 4 4 4 3 3 3 3 2 2 2 2 2 3 4 5 4 2 1 2 1 1 1 1 2 1 2 3 4 6 7
9 9 9 9 9 8 8 8 8 7 6 5 5 4 4 4 3 3 4 3 3 3 3 3 4 4 5 6 5 4 3 3 3 3 3 2 2 3 1 3 5 6 6
8 8 8 9 9 9 9 9 8 7 6 5 5 4 4 4 4 4 4 3 3 4 4 4 4 4 5 6 4 2 3 4 5 4 4 3 3 5 3 4 5 6 5
8 8 9 9 9 9 9 9 8 7 7 6 5 5 4 4 4 5 4 4 4 4 5 5 5 5 5 7 6 3 3 4 3 4 5 8 6 6 4 4 5 5 4
9 9 9 9 9 9 9 9 8 7 6 6 6 5 5 5 6 5 5 5 5 5 5 6 6 6 6 7 7 5 2 3 3 4 4 6 9 9 8 6 6 5 4
10 10 9 9 8 8 9 9 8 7 7 7 7 6 6 5 5 6 5 5 5 6 5 5 6 5 5 6 7 8 6 4 4 4 5 7 9 10 10 8 7 5 3
9 9 10 10 8 7 8 9 8 8 8 7 7 7 7 6 5 6 6 5 4 4 4 4 5 4 5 6 8 8 8 6 5 7 10 8 7 8 8 9 6 4 4
9 9 10 10 8 7 8 8 8 8 8 8 7 6 6 7 7 5 5 5 4 4 4 4 4 4 5 4 4 4 5 6 6 6 8 8 7 7 7 6 5 5 5
8 8 8 9 9 8 8 8 7 8 8 8 7 7 7 7 8 8 7 6 7 5 4 4 4 4 5 5 6 4 5 4 4 4 4 5 5 5 6 6 5 5 4
8 8 9 9 9 9 9 8 7 7 8 7 7 6 6 6 7 8 9 15 12 14 14 12 8 8 9 8 10 10 10 8 4 4 6 6 6 6 6 5 5 5 5
Wind_Direction
179 180 184 185 184 187 190 194 196 192 192 192 196 201 205 206 207 210 204 209 219 215 223 232 202 221 218 230 217 217 206 220 220 227 218 210 213 212 206 218 221 213 214
173 177 181 183 188 189 190 192 197 194 197 196 199 207 213 212 209 213 204 213 215 216 213 224 222 217 217 229 233 230 236 225 211 240 243 227 199 209 209 207 214 219 212
179 179 182 184 189 190 192 192 195 194 198 196 194 192 198 217 210 209 207 213 214 217 223 220 229 226 230 221 228 227 229 235 225 236 260 272 251 198 187 209 218 219 221
180 177 178 182 188 188 188 192 193 195 193 193 198 198 207 212 216 217 211 212 214 218 219 223 227 228 234 222 231 227 230 237 238 220 241 273 316 289 238 204 198 211 223
175 175 177 176 178 181 182 185 187 189 189 194 201 209 219 225 219 215 213 218 216 221 223 223 225 223 230 226 236 234 240 236 243 243 234 237 239 253 267 266 241 215 214
171 169 168 165 168 173 176 176 180 186 188 195 203 211 219 222 217 216 214 218 214 218 222 224 224 222 224 217 222 227 232 244 250 256 253 246 248 247 252 258 254 246 227
167 165 164 164 167 169 170 170 176 183 186 194 205 213 220 223 221 223 218 221 215 212 214 220 219 225 223 220 220 220 238 236 239 243 250 255 260 269 271 269 271 269 254
163 164 163 163 164 163 165 168 175 180 182 191 202 210 219 225 223 225 223 219 220 213 216 218 218 223 227 225 218 224 227 234 237 243 248 255 255 260 263 271 277 271 260
161 161 159 160 159 160 162 166 169 176 181 185 189 198 211 221 224 220 222 219 215 211 214 219 217 221 223 225 222 228 232 234 237 240 234 241 247 251 259 258 262 270 274
158 156 156 156 154 155 155 160 165 170 171 177 184 181 189 202 214 212 206 212 214 218 218 217 218 219 216 216 221 225 230 236 239 249 255 253 254 252 250 253 256 260 267
158 155 155 153 150 149 151 155 157 159 161 166 167 165 167 178 184 190 198 201 208 210 216 219 219 220 219 216 215 226 229 234 238 243 244 246 258 263 260 253 252 253 255
155 154 152 150 150 150 152 154 155 155 155 153 155 156 157 162 171 171 188 197 204 214 217 219 221 225 223 223 223 228 231 234 240 245 251 257 253 251 261 261 257 255 256
155 154 154 154 153 152 152 152 154 150 149 147 149 144 151 152 158 162 177 190 197 211 213 211 217 228 231 230 231 233 238 243 247 249 252 262 266 263 260 261 263 262 255
160 160 158 156 154 152 152 153 152 149 147 146 146 143 145 148 158 167 165 169 190 204 210 209 213 221 229 233 232 228 236 245 246 249 262 281 282 280 276 265 268 271 270
166 164 161 154 155 154 154 152 148 146 147 149 146 143 143 145 148 138 133 137 161 184 181 188 208 210 216 236 239 233 226 236 247 255 340 24 40 23 352 315 308 289 268
168 164 158 155 157 155 155 151 149 147 148 149 143 140 143 142 135 128 123 122 121 110 99 92 91 65 37 56 57 321 254 124 13 356 342 48 67 78 78 56 38 19 332
166 163 160 158 157 156 154 153 148 144 143 142 138 138 140 133 129 128 121 113 106 97 89 81 78 73 54 57 68 72 82 84 69 48 17 1 31 28 82 94 89 61 42
161 160 158 154 152 148 145 142 137 139 140 139 135 135 129 120 116 110 101 97 95 92 88 78 75 75 59 53 60 74 93 82 69 54 41 40 32 27 32 94 87 72 53
150 150 152 148 142 140 137 134 133 134 131 127 125 121 118 112 107 100 94 91 93 90 86 81 79 81 65 48 45 72 100 89 75 60 44 43 59 35 57 106 103 93 88
135 138 137 135 133 134 136 134 131 128 125 120 115 112 112 112 106 99 97 94 92 89 85 78 71 75 71 50 41 46 98 97 97 85 71 55 50 46 50 96 99 96 85
129 131 130 127 126 128 131 129 123 118 115 115 112 106 106 106 102 97 93 96 95 90 85 83 74 67 61 58 49 44 75 86 89 81 73 63 59 60 54 62 71 69 74
127 129 125 119 118 125 126 121 115 111 110 109 106 101 98 98 101 99 93 93 98 99 95 91 83 72 65 56 55 58 54 47 81 78 80 78 75 71 63 65 65 66 69
122 124 123 118 114 116 120 119 115 116 113 110 106 103 99 93 94 97 97 94 88 89 93 93 88 80 77 77 72 71 65 59 77 78 78 84 91 97 82 72 64 66 72
122 123 123 117 110 107 107 109 113 116 115 112 108 105 101 97 86 75 71 73 71 81 86 88 89 86 79 69 76 94 99 103 102 100 106 105 89 87 87 91 79 68 60
121 121 120 117 113 109 105 107 112 116 115 113 109 104 98 94 85 71 53 59 52 42 63 77 78 82 80 53 41 59 77 79 85 104 102 93 90 85 80 76 69 67 70
119 118 118 117 116 113 108 106 109 117 120 115 111 108 108 107 108 103 86 59 63 58 56 54 65 74 74 80 73 70 70 69 70 90 89 80 75 73 73 72 71 64 55